Погода в Труде

Россия / Кемеровская область (Кузбасс)     54°51′43″N   85°55′16″E
темп.,
°C
ветер,
м/с
пор.,
м/с
влажн.,
%
обл.,
%
осадки,
мм/ч
давл.,
гПа
погр.,
м
25 февраля, чт
чт2501:00−5зюз111881100 2.9 1010774
04:00−13з51380100 0.0 1013662
07:00−18ююз3485100 0.0 101845
10:00−17юз51183100 0.0 1019956
13:00−17юз6107580 0.0 10211029
16:00−17юз7117967 0.0 10211361
19:00−19юз4108683 0.0 1024384
22:00−20ю3797100 0.0 1024196
26 февраля, пт
пт2601:00−18юз61291100 0.1 1023704
04:00−21ююз51195100 0.1 1024989
07:00−22юз61290100 0.2 1027918
10:00−22юз71384100 0.0 10291111
13:00−21юз81284100 0.0 10311199
16:00−19юз81485100 0.1 10321416
19:00−21юз51189100 0.1 10341112
22:00−23юз41192100 0.0 1036764
27 февраля, сб
сб2701:00−23юз3993100 0.1 1037546
04:00−24ююз3796100 0.1 1038264
07:00−24ююз3895100 0.1 1038356
10:00−23юз5993100 0.1 1038615
13:00−21юз4890100 0.3 1039752
16:00−19юз4788100 0.1 1038856
19:00−21юз3592100 0.1 1039107
22:00−25ююз339499 0.0 104030
28 февраля, вс
вс2801:00−26ююз349695 0.0 104037
04:00−27ю339531 0.0 104128
07:00−28ю339416 0.0 104125
10:00−25ююв35940 0.0 1041133
13:00−18ююв359214 0.0 1039314
16:00−13юв368787 0.0 1037455
19:00−15ююв338874 0.0 103526
22:00−14юв4887100 0.0 1033144
1 марта, пн
пн101:00−12юв61285100 0.0 1030274
04:00−10юв71393100 0.4 1026369
07:00−9ююв71394100 1.4 1023471
10:00−6ю61194100 1.4 1020891
13:00−4ююз71292100 1.9 10171025
16:00−4юз61194100 2.9 1015937
19:00−3юз61487100 3.3 1014738
22:00−3юз81685100 0.0 1014670